Wind_Speed
49 50 52 54 55 56 57 57 58 58 58 57 57 56 57 58 60 61 63 64 66 67 68 69 70 71 72 73 74 74 74 75 74 74 75 75 75 75 75 75 76 76 75 74 73 70 67 66 64 62 60 59 58 57 55 53 52 52 52 53 54 54 54 55 58 61 60 58 58 59 58 57 56 56 57 59 60 58 58 56 54 53 52 51 50
48 49 51 52 54 55 55 56 55 55 55 55 56 57 59 61 62 63 64 66 67 68 69 70 71 73 74 75 75 76 76 77 77 77 78 79 78 78 78 77 76 74 72 69 66 63 61 60 60 58 57 58 58 57 56 54 53 52 53 53 54 54 53 53 55 58 58 57 56 57 57 55 54 55 56 58 59 58 57 55 53 52 51 50 50
48 49 50 51 52 53 53 54 54 54 55 56 58 60 62 63 64 65 66 66 67 69 70 72 73 74 75 76 77 78 79 80 80 80 80 80 79 78 76 74 72 69 66 63 60 57 57 56 55 55 57 59 59 58 57 55 54 53 54 54 54 53 52 52 53 56 57 56 55 55 56 55 53 53 54 55 56 56 55 54 52 51 50 50 50
48 49 49 50 51 52 53 54 54 56 58 60 62 63 65 65 66 66 67 68 69 71 73 74 75 77 77 78 79 79 79 79 79 78 78 76 75 73 71 69 66 63 60 57 54 52 52 52 52 54 58 59 59 58 57 56 54 54 55 54 53 53 52 51 53 56 56 56 55 53 54 55 52 51 52 52 52 52 52 53 52 51 49 48 48
48 49 50 50 51 52 54 55 57 59 61 63 64 65 66 66 67 68 69 70 72 73 74 75 75 76 76 76 76 75 75 75 74 74 73 72 70 69 66 64 61 58 55 53 51 49 49 50 52 56 59 60 59 58 57 56 55 55 54 53 53 52 52 53 56 57 56 56 54 52 53 54 53 49 48 48 49 49 49 50 50 50 48 46 46
48 49 50 52 53 55 57 59 60 62 63 64 64 65 66 67 68 69 70 71 71 72 72 72 72 72 72 72 72 71 71 71 70 70 69 67 66 64 62 60 57 55 53 51 47 46 48 51 54 57 59 60 59 58 58 57 56 55 54 52 52 52 53 56 57 57 56 55 53 52 52 52 52 49 45 43 45 47 47 47 48 48 47 45 44
49 51 52 54 56 58 60 61 61 62 63 64 66 67 68 69 69 70 70 70 70 69 69 68 68 68 69 69 69 69 69 68 67 66 65 63 62 61 60 58 56 54 52 48 44 44 48 52 55 58 59 59 59 58 57 56 56 56 55 53 52 52 54 56 57 56 56 55 53 52 51 51 52 50 45 41 41 42 44 46 47 46 44 43 42
52 54 56 58 59 59 60 61 62 63 65 66 68 69 69 70 70 69 69 68 68 67 67 67 67 66 66 66 66 66 66 66 65 64 63 61 60 60 59 58 56 53 49 45 42 45 50 53 55 57 58 58 57 56 56 56 57 57 56 55 54 54 55 55 55 55 56 56 53 51 51 52 52 50 45 41 39 38 39 44 47 45 43 41 41
56 57 58 59 59 60 61 63 64 66 67 68 69 69 69 69 68 67 67 66 66 66 66 65 65 65 64 63 63 63 62 62 62 61 61 60 60 59 58 56 54 49 45 43 44 49 53 54 55 56 56 56 55 55 55 56 56 57 56 56 55 56 57 55 52 53 56 57 54 51 51 51 52 51 46 41 39 37 37 40 44 45 43 40 39
58 59 60 61 62 63 64 65 66 67 68 68 68 68 67 67 66 65 65 64 64 64 63 63 62 62 61 61 60 60 59 59 60 59 59 59 58 56 54 51 48 45 44 46 49 52 54 54 54 54 54 54 54 54 54 54 55 55 55 55 56 57 58 56 51 50 53 56 54 51 51 51 51 51 47 43 40 38 37 38 40 42 43 41 38
61 61 63 63 64 65 65 66 67 67 67 67 66 65 64 64 63 63 63 62 62 61 61 60 60 59 58 58 58 58 57 57 57 57 56 55 53 51 49 46 43 42 44 47 50 51 52 52 52 53 53 53 53 53 53 53 53 54 54 54 54 55 56 55 52 49 49 53 53 51 51 52 51 50 49 46 43 40 37 36 38 39 40 40 37
62 63 64 64 64 65 66 66 66 66 65 64 63 63 62 62 61 61 61 60 59 59 58 58 57 56 56 56 56 56 56 56 55 55 54 52 50 47 46 44 43 43 44 46 47 47 48 49 50 51 52 52 52 52 52 51 52 53 54 54 53 53 52 51 50 49 47 49 53 52 51 51 52 51 50 48 46 41 37 35 36 36 36 37 36
63 64 64 65 65 66 65 65 64 63 63 62 61 61 60 59 59 59 59 58 57 57 56 55 55 54 55 55 55 55 54 54 54 52 51 50 47 45 44 45 46 46 46 46 44 42 44 47 49 50 51 51 50 50 50 51 52 54 54 55 53 50 48 47 46 46 45 46 51 54 53 52 52 52 51 50 48 42 37 35 35 35 34 35 36
64 64 65 65 65 65 64 63 62 61 60 60 59 59 58 58 57 57 57 56 55 55 54 54 54 53 54 54 54 54 53 52 52 51 49 48 45 43 43 45 47 48 49 48 45 43 45 48 50 50 51 51 50 50 51 52 53 54 55 54 51 47 46 45 44 44 43 44 47 52 54 55 54 54 53 52 49 44 40 38 37 35 34 34 36
64 65 64 64 63 62 61 60 60 59 59 58 57 57 57 56 56 55 55 54 54 53 53 53 53 53 53 53 53 53 52 52 51 49 47 46 42 40 42 44 45 46 48 48 46 46 47 49 50 50 50 50 51 52 52 53 54 54 54 52 48 46 44 43 42 42 42 42 43 46 50 53 55 56 56 55 51 47 44 41 38 36 35 35 35
63 63 62 61 60 59 58 58 58 57 57 56 56 55 55 54 54 54 53 52 52 52 52 52 53 53 52 52 53 53 51 50 49 47 45 42 39 38 41 43 43 44 46 47 47 47 47 48 48 48 49 50 52 53 53 53 54 53 52 50 48 46 43 40 40 40 39 39 39 41 43 46 50 53 55 54 52 48 44 40 37 36 35 35 35
61 60 59 58 57 56 56 56 56 55 55 54 54 54 53 53 52 52 52 51 51 51 52 52 52 52 52 52 52 52 50 48 47 44 41 39 38 39 41 43 43 44 45 47 48 49 49 50 51 51 53 54 54 54 53 52 52 51 51 51 49 46 41 38 37 37 36 35 36 36 36 37 40 43 44 45 44 42 41 39 37 35 35 34 33
58 57 55 55 54 54 54 54 54 54 53 53 53 52 52 51 51 51 51 51 51 52 52 52 52 51 52 51 50 50 48 46 44 42 39 37 36 38 41 43 43 43 44 46 49 51 53 54 55 55 56 56 55 54 53 51 50 50 51 50 46 42 39 37 36 36 36 35 35 36 36 36 37 37 38 38 37 38 39 38 35 33 33 32 31
55 54 53 53 53 53 53 53 53 53 52 52 51 51 50 50 50 51 51 51 52 52 52 52 51 50 50 49 48 47 45 44 42 40 37 35 35 36 39 41 42 43 44 47 49 51 53 54 55 55 55 55 55 53 51 49 50 50 48 44 40 38 35 34 34 34 34 34 35 35 36 37 36 36 37 36 35 35 36 35 33 32 31 31 29
53 52 52 52 52 52 52 51 51 51 51 50 50 50 50 50 51 51 51 51 51 51 51 50 50 49 48 47 46 44 43 41 39 37 36 34 34 35 36 38 40 42 45 47 50 51 52 53 53 53 54 54 54 53 51 50 48 45 40 37 36 35 33 31 31 31 31 32 32 33 34 34 35 35 35 34 33 33 33 33 33 31 30 29 28
51 50 50 50 50 50 50 49 49 49 49 49 49 49 50 51 51 51 52 51 51 50 50 49 49 48 46 45 43 42 41 39 37 36 35 34 33 33 34 36 39 42 44 46 48 50 51 53 53 54 55 55 55 54 50 45 39 35 32 32 32 31 29 29 28 27 28 29 30 30 32 33 34 34 34 33 32 31 31 32 32 30 30 29 29
49 49 49 49 49 49 48 49 49 48 49 49 49 49 50 50 51 51 51 51 50 49 49 48 47 46 44 43 41 40 39 38 36 35 34 33 32 31 32 35 39 41 41 41 43 44 46 47 48 49 50 50 48 45 39 34 32 32 31 29 29 28 27 27 28 27 27 28 28 30 31 32 33 34 33 33 31 30 30 31 31 31 30 30 29
48 48 48 48 48 48 48 48 49 49 49 50 50 50 50 50 50 50 50 50 49 48 47 47 46 45 43 41 40 39 38 37 36 35 33 32 31 30 31 34 37 37 37 37 38 39 39 39 40 40 40 39 36 32 30 30 31 30 29 30 32 32 31 29 28 28 28 28 28 29 30 30 31 32 32 31 29 28 29 30 31 31 30 29 28
48 48 48 48 48 48 48 49 49 50 50 50 50 50 50 50 50 50 49 49 49 48 46 45 44 43 41 39 38 38 37 36 35 34 33 31 31 30 30 32 33 34 34 35 35 36 36 35 35 35 34 33 31 30 29 30 29 28 28 31 33 33 33 32 31 31 30 30 29 29 28 29 29 29 30 29 28 27 28 29 30 30 29 28 28
47 47 47 48 48 48 49 49 49 50 50 50 51 51 50 50 50 49 49 48 47 46 45 43 42 41 39 38 37 36 36 36 34 34 33 31 31 31 30 31 31 32 33 33 34 34 34 34 33 33 32 32 31 30 29 28 28 29 29 30 30 31 33 33 33 33 32 31 30 29 28 28 28 28 29 29 28 27 27 28 29 30 30 30 29
47 47 47 48 48 48 49 49 49 50 50 50 50 50 50 50 49 49 48 46 45 44 43 41 39 38 37 37 36 36 36 35 34 33 33 32 31 31 31 31 31 31 32 32 32 32 33 33 33 32 31 31 31 30 28 27 28 30 30 30 31 31 32 33 33 34 33 32 32 31 29 28 29 28 28 28 28 27 27 28 29 30 31 30 29
47 47 47 48 48 49 49 49 49 50 50 50 50 49 49 48 48 47 45 43 42 41 39 38 37 36 35 35 34 35 35 34 33 33 32 32 32 32 32 32 31 31 31 31 31 31 32 32 31 31 31 30 29 29 27 27 27 28 30 31 32 32 33 34 34 33 33 33 32 31 30 30 29 28 27 27 26 26 27 27 28 29 29 29 29
47 47 48 48 49 49 49 50 50 49 49 49 49 48 47 45 44 42 40 39 38 36 35 35 34 33 34 33 33 34 34 33 33 32 32 32 32 32 32 32 31 31 31 31 31 31 31 30 30 29 30 29 29 27 27 26 26 27 28 30 31 32 33 33 34 33 33 33 32 31 30 30 29 28 27 25 24 24 25 26 26 27 28 28 28
48 48 48 48 49 49 49 49 50 49 48 47 46 44 43 41 39 37 35 34 33 33 33 33 32 31 32 32 33 33 33 32 31 30 30 30 31 31 31 31 32 32 31 31 31 31 31 30 29 29 29 28 28 27 26 26 26 26 27 28 29 31 32 32 33 33 32 32 32 30 29 29 29 28 27 26 24 23 24 25 26 27 28 29 29
48 49 49 49 49 49 49 48 48 47 46 44 42 40 37 35 34 34 32 30 29 30 31 31 31 30 30 30 31 31 30 29 29 28 27 27 28 29 30 32 32 32 32 32 31 31 31 31 30 29 29 29 28 27 26 26 26 25 26 27 27 29 30 31 31 31 31 31 31 29 29 28 28 28 27 25 24 24 25 26 27 28 29 30 29
49 49 49 49 48 48 47 46 45 43 41 40 38 37 34 30 29 29 30 30 28 28 29 30 30 30 29 29 29 29 28 28 28 27 26 25 26 28 29 30 29 29 30 31 31 31 32 31 30 29 29 29 28 27 26 26 25 25 25 26 26 27 28 29 30 30 30 30 29 28 27 27 27 27 26 25 24 25 25 26 26 28 28 29 29
49 49 48 47 46 45 43 42 41 39 38 36 35 34 33 30 27 25 26 28 28 28 27 28 29 30 29 28 28 28 28 27 27 27 26 25 25 27 26 25 24 25 26 28 28 29 30 30 29 29 29 28 28 27 26 26 25 25 25 24 24 24 25 26 28 30 29 28 27 26 26 25 25 25 25 24 24 25 25 25 26 26 27 27 27
47 46 45 44 43 41 40 39 38 36 35 35 33 32 32 31 29 26 23 24 26 28 28 27 28 28 29 29 28 28 27 26 26 25 24 24 25 25 23 22 22 24 25 25 26 26 26 27 27 28 28 28 28 27 26 26 25 25 24 23 22 23 24 25 26 27 27 26 25 25 24 24 23 23 23 23 23 24 24 24 24 25 25 26 26
44 43 42 41 40 38 37 36 36 35 34 33 33 32 31 31 31 29 26 24 23 25 27 28 28 28 28 28 28 28 27 27 26 25 24 24 24 24 22 22 22 22 23 23 23 23 23 24 24 25 26 27 27 27 27 26 26 25 25 23 22 22 23 24 25 24 24 24 23 23 22 21 21 20 21 22 22 22 22 23 23 24 24 24 24
41 40 39 38 37 36 35 35 35 34 34 33 33 32 31 31 31 30 29 27 24 23 24 26 28 29 28 28 28 28 27 26 26 25 25 24 24 22 21 20 20 20 21 22 21 20 20 21 21 22 23 24 24 25 26 26 26 26 25 23 22 21 22 23 24 23 22 21 21 20 20 19 19 19 20 21 21 21 22 22 22 22 23 23 23
39 38 37 36 36 35 35 35 35 35 34 34 33 32 32 31 31 30 29 29 27 26 24 25 27 28 28 28 28 27 27 26 25 25 24 24 23 21 20 19 18 18 20 21 20 19 19 19 19 20 21 21 21 22 23 24 26 26 25 24 22 21 22 23 23 22 21 20 19 19 18 18 18 19 20 20 21 21 21 21 21 22 22 22 22
38 38 37 37 36 36 35 35 35 35 35 35 34 34 33 32 31 31 30 29 28 27 27 26 26 27 27 27 27 27 27 26 25 24 24 24 23 21 19 17 17 16 17 19 19 19 18 18 18 18 19 19 19 19 19 21 22 24 25 24 22 22 22 22 21 20 19 19 18 17 17 17 18 18 19 19 20 20 21 21 21 21 21 21 20
39 39 39 39 38 37 37 36 36 36 36 35 35 35 34 33 32 32 31 30 29 29 28 28 28 27 27 27 27 27 26 25 24 24 23 23 22 21 19 17 15 15 16 17 18 18 18 18 17 17 17 18 18 17 17 18 19 21 22 23 23 23 22 21 20 19 18 18 17 17 17 17 17 18 18 19 19 19 20 20 21 20 19 19 19
40 40 40 40 40 39 38 37 37 36 36 35 35 35 34 33 33 32 31 31 30 30 30 29 29 28 28 27 27 27 26 24 24 23 23 22 21 20 18 17 15 14 15 16 16 17 17 17 16 16 16 16 16 16 17 17 17 19 20 22 23 23 22 20 19 18 18 18 18 17 17 17 17 17 18 18 18 18 19 20 20 19 18 18 18
41 41 40 40 40 40 39 38 37 37 35 35 34 34 33 33 32 32 32 31 31 31 30 30 30 29 29 28 27 27 25 24 23 22 21 21 20 19 18 16 15 14 14 14 15 15 16 16 16 15 15 15 15 15 16 16 16 17 18 21 23 23 22 20 19 19 19 18 17 17 16 16 16 16 17 17 17 18 19 19 18 17 17 17 17
42 41 41 41 41 40 39 38 37 36 35 34 33 33 32 32 32 32 32 32 31 31 30 30 29 29 28 28 27 26 25 23 22 22 20 19 19 18 18 16 14 13 13 13 13 14 14 14 14 14 14 13 13 14 14 14 15 15 17 20 22 22 22 21 20 20 19 18 17 16 15 15 15 15 15 16 17 18 18 18 17 16 17 16 15
42 42 41 40 40 39 39 38 37 35 34 33 33 32 32 32 32 31 32 31 31 30 29 28 28 28 27 26 26 25 24 23 22 21 19 18 18 17 17 15 14 13 12 12 12 12 13 13 13 13 13 12 12 13 13 13 13 14 16 19 22 22 22 21 20 19 18 17 16 15 15 14 14 14 15 16 17 18 17 16 16 16 16 15 14
42 41 40 40 39 38 37 36 35 34 33 32 31 31 31 30 30 30 30 29 28 27 26 25 25 25 25 24 24 23 23 22 21 19 18 17 17 16 16 14 13 12 12 11 11 11 12 12 12 11 11 11 11 11 12 12 12 13 16 19 21 21 21 20 19 18 17 16 15 14 14 14 14 15 16 17 17 17 16 15 15 15 15 14 14
41 40 39 38 38 37 36 35 34 33 32 31 30 30 29 28 28 27 27 26 25 24 23 22 22 22 22 22 21 21 21 20 19 18 17 16 16 15 14 13 12 12 11 10 10 10 11 11 11 10 9 9 9 9 10 10 11 13 15 17 19 19 19 18 17 17 16 15 15 14 14 14 15 16 17 17 17 16 15 15 15 14 14 14 13
39 39 38 37 36 35 34 33 33 32 31 29 28 28 27 27 26 25 24 23 22 21 20 20 19 19 19 19 19 19 19 18 18 17 16 15 15 14 13 12 12 11 10 9 9 9 9 9 9 8 7 7 7 7 8 8 9 12 14 15 16 16 16 16 15 15 15 15 15 14 14 15 16 17 16 16 15 14 14 14 14 14 14 13 13
38 37 36 35 34 33 32 31 30 30 29 27 26 26 26 25 24 23 22 21 20 19 18 17 17 16 16 16 16 17 17 17 16 16 15 14 14 13 12 11 11 10 9 8 8 8 8 7 7 6 6 6 5 6 6 7 9 10 12 13 13 14 14 14 14 14 14 15 15 15 15 15 15 15 14 13 12 13 13 13 13 13 13 13 12
36 35 34 34 33 32 30 29 28 27 26 25 24 23 23 23 22 21 20 19 18 17 16 15 14 14 14 14 14 15 15 15 15 14 14 13 13 12 11 11 10 9 8 7 7 6 6 5 5 4 4 4 5 6 6 7 8 9 10 11 11 11 12 12 13 13 14 14 14 14 14 13 13 12 12 12 12 12 12 12 13 13 12 12 12
34 34 33 32 31 30 29 27 26 25 24 23 22 21 21 20 19 18 18 17 16 15 14 13 12 12 12 12 12 12 12 13 13 13 13 12 12 11 11 10 8 7 6 6 5 4 4 3 3 3 4 5 6 7 7 8 8 9 9 9 10 10 10 11 11 11 12 12 12 11 11 11 11 11 11 11 12 12 12 12 12 12 12 12 13
34 33 31 30 29 28 27 25 24 22 21 20 20 19 19 18 17 16 15 14 14 13 12 11 10 10 10 9 9 9 10 10 11 11 11 11 11 11 10 9 7 6 5 4 4 3 3 2 2 3 5 6 7 7 7 7 7 8 8 8 9 9 9 9 10 10 10 10 10 10 10 10 11 11 11 11 11 11 11 11 11 11 11 12 13
32 31 29 28 26 25 24 23 21 19 18 17 17 17 16 15 14 13 12 12 11 10 10 9 9 8 7 7 6 7 7 8 9 10 11 11 11 10 9 7 7 6 4 3 3 2 2 2 3 5 6 7 7 7 7 7 7 7 8 8 8 8 8 9 8 8 9 9 9 10 10 11 11 11 10 10 9 9 9 10 10 11 12 12 13
29 28 27 25 24 23 21 20 19 17 16 15 14 13 12 11 10 10 9 9 9 8 8 7 7 6 5 4 4 4 5 7 8 9 10 11 10 9 8 7 6 5 4 3 3 3 3 4 5 6 8 8 8 8 8 7 8 8 8 8 8 8 8 8 8 9 9 10 10 10 10 10 9 8 8 7 7 8 8 9 10 10 11 12 12
Wind_Direction
274 272 271 269 269 269 269 270 271 271 272 272 273 275 276 277 279 281 282 283 283 283 283 283 283 284 284 284 285 285 285 285 285 285 285 285 285 285 285 285 285 286 286 287 287 287 286 285 285 284 282 280 280 280 281 282 282 282 283 283 284 286 287 288 289 287 284 282 280 279 279 277 275 271 267 265 264 262 261 260 259 258 257 256 256
273 272 271 270 271 271 272 272 272 272 273 274 275 277 279 281 283 284 284 284 284 283 283 283 284 284 284 284 284 284 285 285 285 285 285 285 285 285 285 285 285 286 286 286 285 284 282 281 281 280 278 277 278 280 281 281 281 280 281 282 283 285 286 287 289 289 287 284 281 280 279 276 273 270 267 265 264 262 260 260 259 258 257 256 254
273 272 272 273 273 273 273 273 273 274 275 277 279 281 283 285 285 285 285 285 284 284 283 283 283 283 284 284 284 284 284 284 285 285 285 285 285 286 286 286 286 286 286 285 283 280 279 278 277 276 275 276 277 279 280 280 280 280 280 281 282 283 284 285 288 290 289 286 283 280 278 275 272 269 267 266 264 263 261 259 258 258 257 256 254
272 273 273 273 273 273 274 274 275 277 279 281 283 284 285 286 285 285 284 284 283 283 282 282 282 282 283 283 283 283 283 284 284 284 285 286 286 286 287 287 287 286 285 282 280 277 275 275 274 272 272 273 275 277 278 278 279 280 280 281 281 282 283 285 288 290 289 286 283 280 277 275 272 268 267 266 265 264 263 260 258 257 256 255 255
272 273 273 274 275 276 277 279 281 282 283 284 285 285 286 286 285 284 283 283 282 282 282 282 282 282 282 282 282 283 283 284 284 285 285 286 287 287 288 287 287 286 283 280 277 274 273 272 271 270 270 272 273 275 276 277 277 279 280 281 282 283 284 285 288 290 287 283 281 279 276 275 273 268 266 266 266 266 265 263 260 258 257 256 256
274 275 277 278 280 281 283 284 285 285 286 286 286 286 286 286 285 284 284 284 283 283 283 283 283 283 283 283 283 283 284 284 285 286 286 287 287 288 288 288 286 284 281 278 274 270 269 269 268 268 269 271 272 273 274 275 276 278 279 280 282 283 285 287 289 288 285 280 277 275 273 273 272 269 266 265 266 267 267 265 262 260 259 258 256
279 280 282 284 285 286 286 287 287 287 287 287 287 287 287 287 286 286 286 286 285 285 285 285 285 285 285 285 285 285 285 285 286 286 286 287 287 287 287 286 285 283 279 275 270 267 267 268 267 267 268 269 270 271 272 274 275 276 277 278 280 283 286 289 289 287 282 277 274 272 271 270 270 270 268 265 264 266 269 268 264 261 260 259 257
284 286 287 288 289 289 289 289 289 289 290 290 289 289 289 289 288 288 288 287 287 287 287 287 287 287 287 287 287 287 287 287 287 287 287 287 287 287 286 286 284 282 278 273 268 266 266 266 265 265 267 268 269 270 272 273 274 275 277 279 280 283 287 289 288 284 279 274 272 270 268 267 268 269 269 267 264 264 267 269 267 263 260 257 257
289 290 291 291 291 291 292 292 292 292 292 291 291 290 290 290 289 289 289 289 289 289 289 289 288 288 288 288 288 288 289 289 289 289 289 289 289 288 287 286 284 280 274 268 264 263 263 263 264 265 266 268 269 270 271 273 274 276 278 280 283 285 288 289 286 279 274 271 269 268 266 265 266 268 269 269 268 266 265 267 267 265 262 258 255
293 294 294 294 294 294 294 294 293 293 292 292 292 291 290 290 290 289 289 289 289 289 289 290 290 290 290 289 289 289 289 290 290 290 290 290 290 289 287 285 282 277 271 266 263 262 262 263 264 265 267 268 269 271 272 273 275 277 280 283 286 288 290 289 285 276 268 266 266 265 264 264 265 267 270 271 271 268 267 268 267 264 263 260 256
296 296 296 295 295 295 295 294 294 293 292 292 291 290 290 290 289 290 290 290 290 290 290 290 290 290 290 290 290 290 289 290 290 290 290 290 289 287 284 281 278 273 268 266 265 264 264 265 266 267 267 269 270 271 272 274 276 279 282 284 287 289 289 287 283 275 266 260 261 262 262 263 265 266 269 271 271 269 269 270 270 265 262 261 258
297 297 296 296 296 295 295 294 294 293 292 291 291 290 290 291 291 291 291 291 291 291 291 291 291 291 291 290 290 290 290 290 290 290 289 288 286 282 278 273 269 267 265 263 264 266 267 266 266 266 268 269 270 271 273 276 278 280 282 285 288 288 285 283 280 276 268 258 255 257 259 261 263 265 267 270 271 271 271 271 271 267 261 259 257
297 297 296 296 296 295 295 294 293 292 292 291 291 292 292 292 292 292 292 292 292 292 292 292 292 291 291 291 291 291 291 291 291 290 289 287 284 278 272 267 263 262 262 262 263 264 263 262 263 265 267 269 270 272 275 277 279 281 283 285 287 285 281 279 277 273 270 261 254 253 255 257 261 263 266 268 270 272 272 273 274 269 260 256 255
297 296 296 296 295 295 294 293 293 292 293 293 293 293 293 293 293 293 293 293 292 292 292 292 292 292 292 293 293 292 293 293 292 292 289 286 282 275 270 266 262 259 259 261 261 259 258 259 262 264 265 267 269 272 276 278 280 281 284 286 286 284 281 279 275 269 267 263 258 254 253 255 259 263 265 267 269 272 273 274 274 267 257 253 253
296 296 296 295 295 295 294 294 294 294 294 294 294 294 294 294 294 294 293 293 293 293 293 293 293 294 294 295 295 295 295 295 294 292 289 286 280 273 269 267 264 260 259 260 260 258 257 258 260 261 262 265 269 273 276 278 280 282 284 285 285 284 282 279 274 269 265 261 259 258 255 255 257 261 264 267 269 271 273 273 269 261 254 253 253
296 296 296 296 296 295 295 295 295 295 295 295 295 295 295 295 295 294 294 294 293 293 294 294 295 296 297 297 298 298 297 296 294 292 288 285 280 273 269 267 263 260 258 257 257 257 256 257 258 259 262 265 269 274 276 278 280 282 284 285 286 285 281 275 271 268 265 260 258 258 257 256 256 259 263 266 269 271 271 268 262 255 252 252 252
297 296 297 297 296 296 296 296 296 296 296 296 296 296 296 295 295 294 294 294 294 295 296 297 298 298 299 299 299 298 297 295 293 291 288 284 279 273 270 268 265 261 258 256 255 255 256 258 259 261 263 267 270 273 276 277 280 283 285 287 288 285 279 273 268 265 262 260 257 256 257 256 255 256 259 263 265 266 265 261 255 253 253 254 253
298 298 298 298 297 297 297 297 297 297 296 297 296 296 296 295 295 295 295 295 296 297 298 298 299 300 300 300 300 298 297 295 292 290 287 283 278 273 270 268 265 261 258 256 255 256 257 258 259 261 263 266 269 272 274 276 279 283 286 287 287 282 277 273 269 263 259 258 256 254 253 253 253 253 254 256 258 260 260 259 257 256 255 254 253
299 299 299 299 298 298 297 297 297 297 297 297 297 297 296 296 296 296 297 297 298 299 299 299 300 300 300 300 299 297 295 294 292 290 288 284 278 274 271 270 267 262 257 255 255 255 257 257 259 261 263 265 268 271 273 276 281 284 286 285 281 278 276 274 270 265 261 258 256 255 254 253 254 254 254 254 255 257 259 260 258 257 254 252 252
300 300 299 298 298 297 297 297 297 297 297 297 297 298 297 297 297 297 298 299 299 300 300 300 300 300 300 299 297 296 294 292 291 290 289 286 281 277 274 273 271 267 261 257 255 255 256 257 259 260 263 265 267 270 273 278 282 284 282 279 277 276 275 274 270 266 262 258 255 255 254 254 253 253 253 253 253 253 255 256 255 254 253 251 250
299 299 298 297 297 297 298 298 298 298 298 298 298 298 298 298 299 299 299 299 299 300 300 300 300 300 299 297 295 294 292 291 291 290 289 287 284 281 279 277 273 270 267 264 262 260 259 259 260 261 263 265 268 271 275 279 279 276 274 272 273 275 275 273 268 263 260 257 254 251 251 251 251 251 251 250 250 249 250 252 253 252 251 250 248
299 299 298 299 299 299 299 299 299 299 299 299 299 299 299 300 300 300 300 299 299 300 300 299 299 298 297 295 293 292 290 290 289 289 289 288 286 283 281 279 276 274 273 273 271 269 267 266 266 266 267 269 271 274 276 273 268 266 265 264 263 263 263 263 262 258 254 252 250 248 248 248 248 250 250 249 248 247 247 249 251 250 250 249 249
300 300 300 301 300 300 300 300 300 300 300 300 300 300 300 300 300 300 300 299 300 300 299 299 298 296 295 293 291 289 288 288 288 288 289 288 287 284 281 279 278 279 279 278 277 275 274 273 272 272 272 273 274 274 271 269 269 268 263 257 256 256 253 252 254 255 253 250 248 247 247 248 248 249 250 250 248 246 246 247 249 250 250 250 251
301 302 302 302 301 301 301 301 301 301 301 301 301 301 300 300 300 300 300 300 300 299 298 297 295 294 292 290 288 287 286 286 287 288 288 289 287 285 282 280 280 280 279 278 277 277 277 276 276 276 277 277 276 273 271 272 272 267 260 256 256 256 255 252 250 251 252 252 250 248 247 247 248 249 250 249 247 245 244 245 247 249 250 249 249
302 302 302 302 302 302 302 302 302 301 301 301 301 301 301 301 300 300 300 299 299 298 297 295 293 291 289 288 287 285 284 285 286 287 287 288 287 285 283 281 280 278 277 278 278 278 278 278 278 278 278 277 276 274 272 269 264 260 256 255 254 253 253 252 250 250 251 252 252 251 248 246 245 245 246 247 246 243 241 241 243 245 246 246 247
303 303 302 302 302 302 302 302 302 301 302 302 302 302 302 301 301 301 300 300 299 297 296 294 291 289 287 286 285 283 283 284 285 285 286 286 285 285 284 283 282 281 280 280 279 279 278 278 278 278 278 277 276 274 271 265 260 257 255 253 251 250 249 249 250 251 251 252 253 253 251 248 246 244 242 243 244 242 239 238 240 242 244 245 246
303 303 303 302 302 302 302 302 302 302 302 302 302 302 302 302 302 301 300 299 298 296 295 292 290 287 285 284 282 282 283 283 284 284 284 284 284 284 284 284 283 283 282 281 280 279 278 277 278 278 277 276 275 273 269 264 259 256 254 252 250 249 249 248 249 249 250 251 252 252 252 252 251 249 246 243 242 242 242 242 242 244 246 246 247
303 303 303 303 302 302 303 303 302 302 302 302 302 302 302 302 302 301 301 300 299 297 294 291 289 287 285 283 282 281 282 283 284 284 284 283 283 282 283 283 283 282 281 281 280 279 280 280 279 278 277 275 274 271 268 263 258 254 252 251 250 249 250 250 249 249 249 250 250 250 251 251 251 252 251 247 243 240 241 242 243 245 247 248 249
304 304 304 304 303 303 303 303 303 303 302 302 302 302 302 303 302 301 301 301 300 298 296 293 291 288 286 285 284 284 285 287 287 286 285 283 282 282 282 282 281 280 280 280 280 280 280 279 277 275 273 272 270 269 266 262 258 254 251 249 248 248 249 250 250 250 250 251 250 249 249 249 249 249 249 248 245 240 238 238 239 242 244 246 248
305 305 304 304 304 304 303 303 303 303 302 302 302 302 302 303 303 303 302 301 300 299 297 296 294 293 291 290 289 289 290 289 289 288 286 285 285 285 283 280 279 280 280 279 279 278 275 273 272 270 270 269 267 266 264 261 258 254 251 249 247 246 247 249 250 250 250 251 251 251 250 249 249 249 248 247 245 242 239 238 238 239 241 244 245
305 305 305 304 304 304 303 303 303 303 303 302 302 302 302 302 303 303 302 301 299 298 296 296 296 295 295 294 294 293 292 292 291 291 290 290 288 285 281 281 283 283 281 278 275 272 271 270 269 268 268 267 267 265 263 261 259 256 253 250 248 246 246 247 249 250 250 250 251 251 251 250 250 249 248 247 244 242 242 241 240 241 242 244 246
305 305 305 304 304 304 304 304 303 303 303 303 303 302 302 302 301 300 298 297 297 296 294 294 295 296 296 296 295 294 294 294 294 294 294 294 291 285 284 289 291 286 281 278 276 272 271 270 269 267 265 264 264 264 263 261 259 257 255 253 251 250 248 246 247 249 251 252 252 252 251 250 249 249 249 247 245 244 244 244 244 245 246 247 248
306 305 305 305 305 305 304 304 304 303 303 303 303 303 302 301 300 298 294 292 292 293 292 291 291 292 294 295 295 295 295 295 296 296 297 296 293 291 294 297 293 286 284 282 280 277 275 272 269 266 264 262 261 260 259 259 257 256 255 253 251 250 249 248 247 249 251 252 252 252 251 250 249 249 249 248 247 246 246 246 246 248 249 250 250
306 306 306 306 306 306 305 305 304 304 303 303 302 302 301 301 300 298 295 291 287 287 288 289 288 288 289 291 292 294 295 297 298 299 299 297 296 297 298 296 292 289 287 283 280 278 276 274 271 268 264 262 260 257 256 255 254 254 254 252 250 248 248 248 248 248 249 249 249 250 250 248 247 246 246 247 247 246 246 247 247 248 250 251 252
307 307 307 307 306 306 306 305 304 303 302 302 301 301 300 299 298 297 296 293 288 283 282 282 284 286 286 287 288 289 291 292 294 295 295 294 295 296 296 294 293 291 287 285 283 280 276 273 272 269 266 264 260 257 254 252 251 252 252 251 249 246 245 246 247 247 247 247 246 246 245 243 241 240 241 242 244 244 245 246 247 248 250 251 253
309 308 307 307 306 305 305 304 303 302 302 301 301 300 299 297 296 294 293 293 290 287 282 279 279 280 282 283 283 284 285 286 287 288 289 290 291 292 292 292 291 288 286 286 285 283 279 274 271 268 267 265 263 259 255 251 249 249 249 249 248 245 243 244 245 246 246 244 242 241 239 237 235 236 237 240 242 244 246 248 249 250 252 254 256
309 308 308 307 307 306 305 304 303 303 302 301 301 299 298 297 295 294 293 291 290 289 286 283 281 279 279 279 279 279 280 281 282 283 284 285 286 287 288 288 287 286 285 284 283 283 281 277 272 268 266 265 264 262 258 254 250 247 246 245 244 243 242 242 242 242 242 240 238 236 233 230 230 232 236 240 243 246 248 250 252 254 255 258 259
310 310 309 308 307 307 306 304 303 302 301 300 299 298 297 296 295 293 292 291 290 288 287 285 284 282 281 279 278 277 277 277 278 279 280 281 283 285 286 287 287 285 283 281 280 281 280 278 274 270 266 264 264 262 259 255 250 245 241 239 238 238 239 240 239 238 236 234 232 229 226 226 227 231 235 239 243 247 250 252 254 257 260 261 261
310 310 309 308 307 306 305 304 303 301 300 299 298 296 296 295 294 293 292 290 289 288 287 286 285 283 282 280 278 277 276 275 275 276 276 277 279 281 283 285 285 284 282 280 279 279 278 278 276 272 268 265 263 261 258 254 250 244 237 232 230 232 234 234 234 233 231 229 228 227 226 226 227 231 235 239 243 248 252 255 257 260 260 260 260
309 308 308 307 306 305 304 304 303 301 300 299 297 296 295 295 293 292 291 290 288 287 286 285 284 283 282 280 278 276 275 274 273 273 273 274 276 277 279 281 281 281 281 281 279 279 278 278 277 274 270 265 262 261 260 256 251 243 234 227 225 226 227 228 229 229 229 227 226 227 229 230 231 234 238 241 246 250 253 256 259 259 257 256 257
309 308 307 307 306 305 305 304 303 302 301 299 298 296 295 293 292 291 290 289 288 287 286 285 283 282 280 278 276 275 273 272 271 271 271 272 273 274 276 278 279 280 281 281 281 280 279 278 277 275 272 267 264 263 261 256 250 241 230 223 220 221 222 223 225 226 227 226 224 225 227 229 232 237 241 244 247 250 253 256 258 257 254 253 252
309 308 307 307 306 305 304 303 302 302 301 299 298 297 295 293 292 291 289 289 288 287 286 284 282 280 277 275 273 272 271 270 268 268 268 268 269 270 272 274 276 279 280 282 282 280 277 275 274 272 271 269 266 264 260 254 247 237 226 219 217 218 219 220 223 225 226 226 224 223 223 225 229 234 238 242 245 249 253 256 255 253 251 249 246
309 308 308 307 306 305 304 303 302 302 301 300 298 297 295 294 292 291 290 289 289 288 287 284 281 278 275 272 270 268 268 267 266 265 265 265 264 266 268 270 273 276 278 281 282 279 276 274 273 272 271 270 268 265 259 250 239 229 220 215 214 216 218 220 221 223 224 225 223 221 221 223 227 232 237 241 246 250 253 253 251 248 247 243 239
309 309 308 307 306 306 304 303 303 302 301 300 299 297 295 294 292 291 290 290 290 289 287 284 281 277 274 271 268 265 264 263 262 261 261 260 260 261 263 266 268 271 275 279 280 278 276 276 276 275 273 271 268 262 253 241 229 219 213 211 212 215 217 219 220 220 220 220 219 218 220 223 227 233 238 244 249 252 251 247 244 243 241 237 233
311 310 309 308 307 306 304 303 303 302 301 299 298 296 295 293 291 290 290 290 290 289 287 284 282 278 274 270 267 263 261 259 258 257 256 255 255 256 257 259 263 266 271 276 278 277 276 276 277 277 274 268 261 250 239 227 216 209 206 206 208 211 214 215 216 216 215 215 215 216 218 223 229 235 242 247 250 248 244 241 239 238 235 231 227
312 311 310 309 307 306 305 304 303 302 301 299 298 295 293 291 290 289 288 288 288 287 286 285 283 280 275 269 264 260 258 255 252 251 250 249 249 249 250 252 256 260 265 270 274 275 275 275 275 275 267 255 241 227 215 207 201 198 198 200 203 206 209 211 212 213 212 212 213 216 221 227 233 238 242 243 241 238 237 235 234 232 229 225 223
313 312 311 310 309 308 307 305 304 303 301 300 297 295 292 290 289 288 287 286 286 285 284 285 283 279 274 268 261 257 254 251 248 245 243 241 241 241 242 245 248 252 257 263 269 272 271 270 269 262 245 225 208 197 191 188 188 189 192 195 198 201 205 207 208 210 210 212 215 220 224 229 233 233 233 232 231 230 230 229 227 225 223 221 221
316 315 313 312 311 310 308 307 306 304 302 299 297 294 292 291 290 289 286 284 282 282 282 283 281 278 273 267 261 256 251 246 243 239 235 233 233 231 232 236 240 242 246 255 264 265 260 257 252 233 208 189 180 179 178 178 180 182 185 189 193 197 201 203 205 207 208 211 215 217 219 221 223 222 223 224 223 223 223 222 222 222 221 220 219
318 317 316 314 313 312 311 310 308 305 302 299 295 292 291 291 291 289 286 281 278 278 278 278 279 277 273 268 261 254 246 240 234 230 226 223 221 221 223 225 227 228 234 245 250 244 235 229 212 190 177 170 168 169 170 172 174 176 178 182 186 190 193 195 197 200 202 204 206 207 208 211 213 215 217 218 218 219 220 220 220 221 222 221 219
321 320 319 318 317 316 315 313 311 309 306 301 295 291 291 291 290 289 285 279 275 272 273 274 276 276 274 269 261 249 238 229 222 217 213 209 208 209 210 209 209 211 217 221 217 205 192 179 170 165 161 159 159 160 161 163 164 166 169 173 176 180 183 185 187 188 191 194 196 198 202 205 208 211 213 214 216 218 220 221 222 223 224 222 219
326 325 324 322 321 320 319 317 316 314 310 305 299 295 292 290 288 287 283 278 272 267 265 267 271 274 274 270 258 239 222 212 205 201 198 197 196 195 193 191 192 192 190 184 177 167 156 153 153 153 151 149 148 149 151 152 154 157 160 163 165 167 168 171 174 178 183 188 192 196 199 202 204 208 211 213 217 220 221 222 224 225 224 223 220
Height
2961 2960 2959 2958 2956 2955 2953 2952 2950 2949 2947 2945 2944 2942 2940 2938 2937 2935 2933 2931 2928 2926 2923 2921 2918 2916 2914 2911 2909 2907 2905 2903 2901 2898 2896 2893 2892 2889 2888 2886 2883 2882 2881 2878 2876 2874 2872 2870 2868 2867 2866 2865 2865 2865 2865 2865 2865 2864 2863 2862 2861 2860 2859 2855 2849 2847 2850 2852 2853 2852 2853 2853 2854 2856 2857 2856 2855 2855 2855 2856 2857 2858 2859 2860 2862
2955 2953 2952 2951 2949 2948 2946 2944 2943 2941 2939 2938 2936 2934 2932 2931 2929 2927 2925 2922 2920 2917 2914 2912 2909 2906 2904 2901 2899 2897 2895 2893 2891 2889 2886 2884 2882 2880 2878 2876 2873 2872 2870 2868 2867 2865 2863 2861 2860 2859 2858 2856 2857 2857 2857 2858 2857 2857 2857 2855 2854 2854 2853 2850 2845 2841 2841 2844 2846 2846 2846 2846 2846 2848 2849 2848 2848 2848 2848 2849 2850 2851 2852 2853 2855
2948 2946 2945 2944 2942 2941 2939 2937 2936 2934 2932 2930 2928 2927 2925 2922 2920 2918 2916 2913 2911 2908 2905 2902 2900 2897 2894 2892 2890 2888 2885 2883 2881 2879 2876 2874 2872 2870 2868 2865 2863 2862 2860 2859 2858 2856 2854 2853 2852 2851 2850 2848 2849 2849 2849 2849 2849 2849 2849 2849 2847 2847 2847 2844 2840 2837 2835 2836 2839 2839 2839 2839 2840 2841 2841 2841 2841 2840 2841 2842 2843 2844 2845 2846 2848
2941 2940 2939 2937 2935 2934 2932 2930 2929 2927 2925 2923 2921 2919 2916 2914 2911 2909 2906 2904 2902 2899 2896 2893 2890 2888 2885 2883 2880 2878 2876 2874 2871 2869 2866 2864 2861 2859 2858 2855 2853 2852 2851 2850 2849 2848 2846 2845 2845 2844 2842 2841 2841 2842 2841 2841 2841 2841 2841 2841 2840 2839 2839 2838 2835 2832 2829 2828 2830 2832 2832 2832 2833 2834 2834 2834 2834 2833 2833 2835 2836 2837 2838 2840 2841
2935 2933 2932 2931 2929 2927 2925 2923 2921 2919 2917 2915 2913 2910 2908 2905 2902 2899 2897 2894 2892 2889 2887 2884 2881 2878 2876 2873 2871 2869 2867 2864 2862 2859 2857 2854 2852 2850 2848 2846 2844 2843 2842 2841 2841 2840 2839 2838 2838 2837 2834 2834 2834 2834 2834 2834 2834 2833 2833 2833 2833 2831 2831 2830 2829 2827 2824 2821 2823 2826 2826 2825 2826 2828 2828 2828 2828 2827 2827 2828 2829 2830 2832 2834 2835
2929 2927 2926 2924 2922 2920 2918 2916 2914 2911 2909 2906 2903 2901 2898 2895 2893 2890 2887 2884 2882 2879 2876 2874 2871 2868 2866 2864 2861 2859 2857 2855 2852 2850 2848 2845 2843 2841 2839 2837 2835 2834 2834 2833 2833 2832 2831 2831 2831 2829 2827 2826 2826 2826 2826 2826 2827 2826 2826 2826 2825 2824 2823 2822 2822 2820 2817 2816 2816 2818 2819 2819 2819 2820 2822 2822 2821 2821 2821 2822 2822 2823 2825 2827 2828
2922 2921 2919 2916 2914 2912 2910 2907 2905 2902 2899 2896 2894 2891 2888 2885 2883 2880 2877 2874 2871 2869 2866 2864 2861 2858 2856 2854 2851 2849 2847 2845 2843 2841 2839 2837 2834 2832 2831 2829 2827 2826 2825 2825 2825 2824 2824 2824 2822 2820 2819 2818 2818 2818 2819 2819 2819 2819 2819 2819 2818 2817 2816 2815 2814 2812 2810 2809 2810 2811 2812 2813 2812 2813 2815 2816 2816 2816 2815 2814 2816 2818 2819 2820 2822
2915 2913 2911 2908 2906 2904 2901 2898 2895 2892 2889 2886 2884 2881 2878 2875 2872 2869 2866 2863 2861 2858 2856 2853 2851 2849 2846 2843 2841 2839 2836 2835 2833 2831 2830 2828 2826 2824 2823 2821 2819 2818 2817 2817 2818 2817 2816 2815 2814 2812 2811 2811 2811 2811 2812 2812 2812 2812 2812 2811 2810 2810 2809 2808 2807 2805 2803 2802 2803 2805 2806 2806 2806 2807 2809 2810 2810 2811 2810 2807 2808 2812 2813 2815 2816
2908 2905 2902 2900 2897 2894 2891 2888 2885 2882 2879 2876 2873 2870 2867 2864 2861 2859 2856 2853 2851 2848 2846 2843 2841 2839 2837 2834 2832 2830 2828 2826 2824 2822 2820 2819 2817 2815 2813 2812 2810 2810 2810 2810 2810 2809 2808 2807 2805 2804 2804 2804 2804 2804 2804 2804 2804 2804 2804 2803 2802 2802 2801 2801 2800 2798 2796 2795 2796 2798 2799 2799 2800 2801 2802 2804 2805 2805 2805 2803 2803 2804 2806 2809 2811
2899 2896 2893 2890 2887 2884 2881 2878 2875 2872 2869 2866 2863 2860 2857 2854 2852 2849 2847 2844 2842 2839 2837 2835 2832 2830 2828 2826 2824 2822 2820 2818 2816 2815 2813 2811 2808 2806 2804 2803 2802 2802 2802 2802 2801 2801 2800 2799 2798 2797 2797 2797 2797 2797 2797 2797 2796 2796 2796 2796 2794 2793 2793 2793 2793 2792 2790 2789 2790 2791 2792 2792 2794 2795 2796 2798 2799 2799 2799 2798 2798 2799 2800 2802 2805
2889 2886 2883 2880 2878 2875 2872 2869 2866 2862 2859 2857 2854 2851 2849 2846 2843 2841 2838 2836 2834 2831 2829 2826 2824 2822 2819 2817 2816 2814 2813 2811 2809 2807 2806 2805 2801 2798 2796 2795 2795 2795 2795 2794 2794 2794 2793 2792 2791 2790 2790 2790 2790 2790 2790 2790 2790 2789 2789 2789 2788 2787 2785 2784 2785 2785 2784 2783 2783 2784 2785 2786 2788 2789 2790 2792 2792 2793 2794 2793 2793 2794 2795 2795 2799
2880 2877 2875 2872 2869 2866 2863 2860 2857 2853 2850 2848 2845 2842 2840 2837 2835 2832 2830 2827 2825 2823 2821 2818 2816 2814 2811 2809 2808 2806 2805 2804 2802 2800 2799 2798 2796 2793 2789 2787 2787 2788 2787 2787 2787 2787 2786 2784 2783 2782 2783 2783 2783 2783 2783 2783 2783 2782 2782 2782 2782 2781 2779 2778 2777 2777 2777 2777 2777 2778 2779 2780 2782 2783 2785 2785 2786 2787 2788 2789 2788 2789 2790 2790 2792
2872 2869 2866 2863 2860 2857 2854 2851 2848 2844 2842 2839 2836 2834 2831 2829 2826 2824 2821 2819 2817 2815 2813 2810 2808 2806 2804 2802 2800 2799 2798 2796 2794 2793 2792 2790 2789 2786 2781 2780 2780 2780 2779 2779 2779 2779 2778 2776 2775 2776 2776 2776 2776 2776 2776 2776 2776 2776 2775 2775 2775 2774 2774 2772 2771 2771 2771 2771 2771 2772 2773 2774 2775 2777 2779 2779 2780 2781 2783 2784 2784 2784 2784 2785 2786
2863 2860 2857 2854 2851 2848 2845 2842 2839 2835 2833 2830 2828 2825 2823 2820 2818 2815 2813 2811 2809 2807 2805 2803 2801 2799 2796 2794 2792 2791 2790 2788 2786 2785 2784 2783 2781 2776 2772 2772 2772 2771 2771 2771 2772 2771 2770 2769 2769 2770 2770 2770 2770 2770 2770 2770 2769 2769 2768 2768 2768 2768 2767 2766 2765 2765 2765 2765 2765 2765 2767 2769 2770 2771 2772 2773 2774 2776 2778 2778 2779 2778 2779 2780 2781
2855 2852 2849 2845 2842 2839 2835 2832 2829 2826 2824 2822 2819 2817 2814 2812 2810 2807 2805 2803 2801 2799 2797 2795 2793 2791 2788 2786 2783 2782 2782 2780 2778 2777 2776 2775 2773 2767 2763 2764 2764 2763 2763 2764 2764 2764 2764 2763 2763 2763 2763 2763 2763 2764 2764 2763 2763 2762 2762 2761 2761 2761 2760 2759 2759 2759 2759 2760 2760 2760 2761 2763 2765 2765 2766 2767 2769 2771 2772 2773 2773 2773 2774 2775 2776
2846 2843 2840 2836 2833 2830 2826 2824 2821 2818 2816 2813 2811 2809 2806 2804 2802 2799 2797 2796 2794 2791 2789 2787 2785 2782 2780 2778 2774 2773 2773 2771 2770 2769 2767 2767 2766 2760 2757 2756 2756 2756 2757 2757 2758 2758 2757 2757 2756 2757 2757 2757 2757 2757 2758 2757 2756 2756 2755 2754 2754 2753 2753 2753 2753 2753 2753 2754 2755 2755 2756 2758 2760 2760 2761 2762 2764 2765 2766 2766 2767 2767 2769 2770 2772
2837 2834 2831 2828 2825 2821 2818 2815 2813 2810 2808 2805 2803 2801 2798 2796 2794 2791 2789 2788 2786 2783 2781 2779 2777 2774 2772 2770 2767 2764 2764 2762 2761 2761 2760 2759 2757 2754 2750 2750 2749 2749 2750 2751 2751 2751 2751 2750 2750 2750 2750 2751 2751 2752 2752 2751 2750 2750 2749 2748 2747 2746 2746 2747 2747 2747 2748 2748 2749 2750 2751 2753 2754 2756 2757 2757 2758 2759 2759 2760 2761 2763 2765 2766 2769
2828 2825 2823 2819 2816 2813 2810 2807 2805 2803 2801 2798 2796 2794 2791 2789 2787 2784 2782 2780 2778 2776 2773 2770 2769 2766 2763 2762 2759 2757 2755 2754 2753 2753 2752 2751 2749 2746 2744 2743 2743 2744 2744 2745 2745 2744 2744 2743 2743 2743 2744 2745 2745 2746 2746 2746 2746 2745 2743 2742 2740 2740 2740 2741 2741 2742 2743 2743 2744 2745 2746 2747 2748 2750 2751 2752 2753 2754 2754 2755 2758 2760 2761 2763 2765
2820 2817 2815 2812 2809 2806 2803 2800 2798 2796 2794 2791 2789 2787 2784 2782 2779 2777 2774 2772 2770 2768 2765 2762 2761 2759 2756 2754 2752 2749 2748 2747 2746 2745 2745 2744 2742 2740 2738 2737 2737 2737 2738 2738 2737 2737 2737 2737 2737 2738 2739 2739 2740 2740 2741 2741 2741 2739 2738 2736 2734 2734 2734 2735 2735 2736 2737 2738 2739 2739 2741 2742 2743 2745 2746 2748 2749 2750 2750 2751 2754 2756 2757 2759 2760
2813 2810 2808 2805 2802 2799 2797 2794 2792 2789 2787 2785 2782 2780 2777 2774 2772 2769 2767 2765 2762 2760 2758 2755 2753 2752 2750 2747 2745 2743 2741 2740 2740 2739 2738 2737 2736 2734 2732 2731 2730 2730 2730 2730 2730 2731 2731 2732 2732 2733 2733 2734 2734 2735 2736 2737 2736 2734 2732 2730 2728 2728 2730 2730 2730 2731 2732 2733 2734 2735 2736 2737 2738 2740 2741 2743 2745 2746 2747 2747 2749 2751 2753 2755 2756
2807 2804 2801 2798 2796 2793 2790 2788 2785 2783 2780 2778 2776 2773 2770 2767 2765 2762 2760 2758 2755 2753 2751 2748 2746 2744 2743 2740 2738 2737 2735 2734 2733 2733 2732 2731 2730 2728 2727 2725 2723 2722 2722 2722 2723 2724 2725 2726 2727 2727 2728 2728 2728 2729 2731 2732 2730 2728 2726 2726 2725 2725 2725 2725 2726 2726 2727 2727 2729 2730 2731 2732 2733 2734 2736 2738 2740 2742 2743 2743 2745 2747 2749 2750 2751
2800 2797 2794 2792 2789 2786 2784 2781 2778 2776 2773 2770 2768 2766 2764 2760 2758 2755 2752 2750 2748 2746 2744 2741 2738 2737 2736 2734 2732 2730 2729 2728 2727 2727 2726 2725 2724 2723 2722 2719 2717 2715 2716 2717 2717 2718 2718 2720 2720 2721 2721 2721 2722 2724 2725 2724 2722 2722 2722 2722 2721 2721 2721 2721 2721 2722 2722 2723 2724 2725 2726 2728 2729 2730 2731 2734 2736 2739 2740 2740 2741 2743 2745 2746 2748
2793 2790 2787 2785 2782 2779 2777 2774 2771 2768 2766 2763 2761 2759 2757 2754 2751 2748 2745 2743 2741 2739 2737 2734 2731 2730 2729 2727 2726 2724 2723 2722 2721 2721 2720 2719 2719 2718 2717 2714 2712 2711 2711 2711 2711 2711 2712 2712 2713 2713 2714 2715 2717 2718 2717 2716 2715 2717 2718 2717 2715 2716 2716 2717 2717 2717 2718 2719 2720 2721 2723 2724 2726 2727 2728 2731 2733 2735 2736 2737 2738 2739 2741 2743 2744
2786 2783 2780 2778 2775 2772 2770 2767 2764 2761 2758 2756 2753 2751 2749 2747 2744 2741 2738 2736 2733 2732 2730 2727 2725 2723 2722 2721 2720 2718 2717 2717 2716 2715 2715 2714 2713 2712 2711 2709 2708 2707 2706 2705 2705 2705 2706 2706 2707 2707 2708 2709 2710 2711 2711 2711 2711 2712 2712 2711 2711 2712 2712 2713 2714 2714 2714 2716 2717 2718 2720 2722 2723 2724 2725 2727 2730 2732 2733 2734 2735 2736 2737 2739 2740
2780 2777 2774 2771 2768 2766 2763 2760 2757 2754 2752 2749 2746 2744 2741 2739 2737 2734 2731 2729 2726 2725 2723 2721 2719 2717 2716 2715 2714 2712 2711 2711 2710 2710 2709 2708 2707 2707 2706 2705 2704 2703 2702 2701 2701 2701 2701 2701 2702 2702 2703 2703 2704 2704 2705 2706 2707 2706 2706 2707 2707 2708 2708 2709 2710 2710 2711 2712 2713 2715 2717 2718 2719 2720 2722 2723 2726 2728 2729 2730 2731 2732 2733 2734 2736
2773 2770 2767 2765 2762 2759 2756 2754 2751 2748 2745 2742 2739 2737 2734 2731 2729 2727 2724 2722 2720 2718 2716 2714 2712 2711 2710 2709 2708 2706 2705 2705 2705 2704 2703 2703 2702 2701 2700 2700 2699 2698 2698 2697 2697 2697 2696 2696 2696 2697 2698 2698 2698 2699 2700 2701 2702 2701 2702 2702 2703 2703 2704 2705 2706 2707 2708 2709 2710 2711 2713 2714 2715 2717 2718 2720 2722 2724 2725 2726 2727 2728 2729 2730 2732
2767 2764 2761 2758 2756 2753 2750 2747 2745 2742 2739 2736 2733 2730 2727 2724 2722 2719 2717 2715 2713 2711 2709 2708 2706 2705 2704 2703 2702 2701 2700 2700 2700 2699 2698 2698 2697 2697 2696 2695 2695 2694 2694 2693 2693 2692 2692 2692 2692 2692 2693 2693 2693 2694 2695 2696 2697 2697 2697 2698 2698 2699 2700 2700 2701 2703 2704 2705 2706 2708 2709 2711 2712 2713 2715 2717 2719 2720 2722 2723 2724 2724 2725 2727 2728
2760 2758 2755 2752 2749 2746 2743 2740 2737 2735 2732 2729 2726 2723 2721 2718 2716 2713 2711 2709 2707 2705 2703 2702 2701 2699 2698 2697 2696 2696 2695 2695 2695 2695 2694 2694 2693 2692 2691 2691 2690 2690 2689 2689 2688 2688 2688 2688 2688 2688 2688 2688 2689 2689 2690 2691 2691 2692 2693 2693 2694 2695 2695 2696 2697 2698 2700 2701 2702 2704 2706 2707 2708 2710 2711 2713 2716 2718 2719 2720 2721 2721 2722 2723 2724
2754 2751 2748 2745 2742 2739 2736 2733 2730 2727 2725 2723 2720 2717 2714 2712 2710 2708 2706 2704 2702 2700 2697 2696 2695 2694 2693 2692 2692 2691 2691 2691 2691 2690 2690 2689 2688 2688 2687 2687 2686 2686 2685 2685 2684 2684 2684 2684 2684 2684 2683 2684 2684 2684 2685 2686 2687 2687 2688 2689 2690 2691 2691 2692 2693 2694 2696 2697 2698 2700 2702 2703 2705 2706 2708 2710 2712 2714 2715 2716 2717 2718 2719 2719 2721
2748 2744 2741 2738 2735 2732 2729 2726 2723 2721 2718 2716 2714 2712 2710 2708 2705 2702 2701 2699 2698 2696 2693 2691 2690 2689 2689 2688 2687 2687 2687 2687 2687 2686 2686 2685 2685 2684 2683 2682 2681 2681 2681 2681 2680 2680 2679 2679 2679 2679 2679 2679 2679 2680 2681 2681 2682 2683 2684 2685 2686 2687 2688 2688 2690 2691 2692 2693 2694 2696 2698 2700 2701 2703 2704 2706 2709 2710 2711 2713 2714 2715 2715 2716 2717
2741 2737 2734 2731 2728 2725 2723 2720 2717 2715 2712 2710 2708 2706 2705 2704 2702 2699 2696 2694 2693 2692 2690 2687 2686 2685 2684 2684 2683 2683 2683 2682 2682 2682 2682 2682 2681 2679 2678 2678 2678 2678 2676 2675 2675 2675 2674 2674 2675 2675 2675 2675 2676 2676 2677 2678 2679 2680 2680 2681 2682 2684 2685 2686 2686 2687 2688 2689 2691 2693 2695 2696 2698 2700 2701 2703 2705 2706 2707 2709 2710 2711 2712 2713 2714
2733 2730 2727 2725 2722 2719 2716 2714 2711 2709 2707 2705 2703 2701 2699 2699 2698 2697 2694 2691 2689 2688 2687 2685 2682 2681 2680 2680 2679 2679 2679 2678 2678 2678 2678 2678 2676 2674 2674 2675 2674 2673 2671 2670 2670 2670 2670 2670 2670 2671 2671 2671 2672 2672 2673 2674 2676 2676 2677 2678 2680 2681 2682 2683 2683 2684 2685 2687 2688 2690 2691 2693 2695 2696 2698 2700 2701 2702 2704 2705 2706 2707 2708 2709 2711
2727 2724 2721 2718 2716 2713 2711 2708 2706 2703 2701 2700 2698 2696 2694 2693 2692 2692 2692 2689 2686 2684 2683 2682 2680 2678 2677 2676 2675 2675 2675 2675 2674 2674 2674 2673 2672 2671 2671 2671 2670 2668 2667 2667 2666 2666 2666 2666 2666 2666 2667 2667 2668 2669 2670 2671 2672 2673 2674 2675 2677 2678 2678 2679 2680 2681 2682 2684 2685 2687 2689 2690 2692 2693 2695 2696 2698 2699 2700 2702 2703 2704 2705 2706 2707
2721 2718 2715 2712 2710 2708 2705 2703 2700 2698 2697 2695 2693 2691 2690 2688 2686 2686 2686 2686 2684 2682 2679 2677 2676 2675 2674 2673 2672 2671 2671 2670 2670 2670 2670 2669 2668 2668 2668 2667 2666 2665 2664 2664 2663 2663 2663 2662 2662 2662 2662 2663 2664 2665 2666 2667 2668 2669 2670 2672 2673 2675 2675 2676 2677 2678 2680 2681 2683 2684 2686 2687 2689 2690 2692 2693 2695 2696 2697 2698 2700 2701 2701 2703 2704
2715 2712 2709 2707 2704 2702 2700 2698 2695 2693 2692 2690 2688 2686 2685 2683 2682 2680 2680 2680 2680 2679 2677 2674 2672 2671 2671 2670 2670 2669 2668 2668 2667 2667 2666 2665 2665 2665 2665 2664 2663 2662 2661 2660 2660 2660 2659 2659 2659 2659 2659 2659 2660 2661 2662 2663 2665 2666 2667 2669 2670 2671 2672 2673 2674 2675 2677 2678 2680 2682 2683 2685 2686 2688 2689 2690 2691 2693 2694 2695 2696 2697 2698 2699 2701
2709 2706 2704 2702 2699 2697 2695 2693 2691 2688 2686 2685 2683 2682 2680 2679 2677 2676 2675 2674 2673 2673 2673 2671 2670 2668 2667 2667 2666 2666 2665 2665 2665 2664 2663 2663 2662 2662 2662 2661 2661 2660 2658 2657 2657 2657 2656 2656 2656 2656 2656 2656 2656 2657 2658 2660 2661 2662 2664 2666 2667 2668 2669 2670 2671 2673 2674 2676 2677 2679 2680 2682 2684 2685 2686 2688 2689 2690 2691 2692 2693 2695 2696 2697 2698
2703 2701 2699 2696 2694 2692 2690 2688 2686 2683 2681 2680 2678 2676 2675 2674 2672 2671 2670 2669 2668 2668 2667 2666 2665 2665 2664 2663 2662 2662 2662 2662 2662 2661 2660 2660 2659 2659 2659 2659 2658 2657 2656 2655 2654 2654 2654 2654 2653 2653 2653 2653 2654 2654 2655 2656 2657 2659 2661 2662 2664 2665 2666 2667 2669 2671 2672 2673 2675 2676 2678 2679 2681 2683 2684 2685 2686 2688 2689 2690 2691 2692 2693 2694 2695
2698 2695 2693 2690 2688 2686 2685 2683 2681 2678 2676 2675 2673 2671 2669 2668 2667 2666 2665 2664 2663 2662 2662 2661 2660 2660 2659 2659 2658 2658 2658 2658 2658 2658 2657 2657 2656 2656 2656 2656 2655 2655 2654 2653 2652 2652 2651 2651 2651 2651 2651 2651 2652 2652 2653 2653 2654 2656 2657 2659 2661 2662 2664 2665 2667 2668 2670 2671 2673 2674 2676 2677 2679 2680 2682 2683 2684 2685 2686 2687 2688 2689 2691 2691 2692
2693 2690 2687 2685 2682 2680 2678 2677 2675 2673 2671 2669 2667 2666 2664 2663 2661 2660 2659 2658 2658 2657 2656 2656 2655 2655 2654 2654 2654 2653 2654 2654 2654 2654 2654 2653 2653 2653 2653 2653 2653 2652 2651 2651 2650 2650 2649 2649 2649 2649 2649 2649 2650 2650 2650 2651 2652 2653 2654 2656 2658 2660 2661 2663 2665 2666 2668 2669 2671 2672 2674 2675 2677 2678 2680 2681 2682 2683 2684 2685 2686 2687 2688 2689 2690
2687 2685 2682 2679 2677 2674 2672 2670 2668 2667 2665 2663 2662 2660 2658 2657 2656 2655 2654 2653 2652 2651 2651 2650 2650 2649 2649 2649 2649 2649 2650 2650 2650 2650 2650 2650 2650 2650 2650 2650 2650 2650 2649 2649 2648 2648 2647 2647 2647 2647 2647 2647 2648 2648 2648 2649 2650 2651 2652 2653 2655 2657 2659 2661 2663 2664 2665 2667 2669 2670 2672 2674 2675 2677 2678 2679 2681 2682 2682 2683 2684 2685 2686 2687 2687
2682 2679 2676 2674 2671 2668 2666 2664 2662 2660 2659 2657 2656 2654 2653 2651 2650 2649 2648 2647 2647 2646 2645 2645 2645 2644 2644 2644 2644 2644 2645 2646 2646 2646 2647 2647 2647 2647 2647 2647 2647 2647 2647 2647 2646 2646 2645 2645 2645 2645 2645 2645 2646 2646 2646 2647 2647 2648 2650 2651 2653 2655 2657 2659 2661 2662 2663 2665 2667 2669 2671 2672 2674 2675 2676 2678 2679 2679 2680 2681 2682 2683 2684 2685 2685
2676 2673 2670 2668 2665 2663 2660 2658 2656 2655 2653 2651 2650 2648 2647 2646 2645 2643 2642 2641 2641 2641 2640 2640 2639 2639 2639 2639 2639 2640 2640 2641 2642 2643 2643 2644 2644 2644 2644 2645 2645 2645 2645 2645 2644 2644 2643 2643 2643 2643 2643 2644 2644 2644 2644 2645 2645 2646 2648 2649 2651 2653 2655 2657 2659 2661 2662 2664 2666 2668 2669 2671 2672 2673 2674 2675 2676 2677 2678 2679 2680 2681 2682 2682 2683
2670 2667 2664 2662 2659 2657 2654 2652 2650 2649 2647 2646 2644 2643 2642 2640 2639 2638 2637 2636 2636 2635 2635 2635 2634 2634 2634 2634 2635 2635 2636 2637 2638 2639 2640 2641 2641 2641 2642 2642 2642 2643 2643 2642 2642 2642 2641 2641 2641 2641 2642 2642 2642 2642 2642 2643 2643 2644 2646 2648 2650 2652 2654 2656 2658 2660 2661 2663 2665 2666 2668 2669 2670 2672 2673 2674 2675 2675 2676 2677 2678 2679 2680 2681 2682
2664 2661 2658 2655 2653 2651 2648 2646 2645 2643 2642 2640 2639 2638 2636 2635 2634 2633 2632 2632 2631 2631 2631 2630 2630 2630 2630 2630 2631 2632 2632 2633 2634 2636 2637 2638 2638 2639 2639 2640 2640 2640 2641 2641 2641 2640 2640 2640 2640 2640 2641 2641 2641 2641 2641 2641 2642 2643 2645 2646 2649 2651 2653 2655 2657 2659 2660 2662 2663 2665 2666 2668 2669 2670 2671 2672 2673 2674 2674 2675 2676 2677 2678 2679 2680
2658 2655 2652 2650 2647 2645 2643 2641 2639 2638 2636 2635 2634 2632 2631 2630 2629 2629 2628 2628 2627 2627 2627 2626 2626 2626 2626 2627 2627 2628 2629 2630 2631 2632 2634 2635 2636 2636 2637 2638 2638 2638 2639 2639 2639 2639 2639 2639 2639 2639 2639 2639 2639 2640 2640 2641 2641 2643 2644 2646 2648 2650 2652 2654 2656 2658 2659 2661 2662 2664 2665 2666 2667 2668 2669 2670 2671 2672 2672 2673 2674 2675 2676 2677 2678
2652 2649 2647 2644 2642 2640 2638 2636 2634 2632 2631 2630 2629 2628 2626 2625 2625 2625 2624 2624 2624 2624 2623 2623 2623 2623 2623 2624 2624 2625 2626 2627 2628 2630 2631 2632 2633 2634 2635 2635 2636 2637 2637 2637 2638 2638 2638 2638 2638 2638 2639 2639 2639 2639 2640 2640 2642 2643 2644 2646 2648 2650 2652 2654 2655 2657 2658 2660 2661 2663 2664 2665 2666 2667 2668 2669 2669 2670 2671 2672 2673 2674 2675 2676 2677
2647 2644 2641 2639 2636 2634 2632 2631 2629 2628 2626 2625 2624 2623 2622 2621 2621 2621 2621 2621 2621 2621 2620 2621 2621 2620 2621 2621 2621 2622 2623 2624 2626 2627 2628 2630 2631 2632 2633 2634 2634 2635 2636 2636 2637 2637 2637 2637 2637 2638 2638 2638 2639 2639 2640 2641 2642 2643 2645 2646 2648 2650 2651 2653 2654 2656 2657 2659 2660 2662 2663 2664 2665 2666 2666 2667 2668 2669 2669 2670 2671 2672 2673 2674 2675
2642 2639 2636 2633 2631 2629 2627 2626 2624 2623 2622 2621 2620 2619 2618 2618 2617 2617 2617 2617 2618 2618 2618 2618 2618 2618 2618 2619 2619 2620 2621 2622 2623 2625 2626 2628 2629 2630 2631 2632 2633 2634 2635 2635 2636 2636 2636 2637 2637 2637 2638 2638 2639 2640 2641 2642 2643 2644 2645 2647 2648 2650 2651 2653 2654 2656 2657 2658 2660 2661 2662 2663 2663 2664 2665 2666 2666 2667 2668 2669 2670 2671 2672 2673 2674
2637 2634 2631 2629 2626 2624 2623 2621 2620 2619 2617 2616 2616 2615 2614 2614 2614 2614 2614 2614 2615 2615 2616 2616 2616 2616 2617 2617 2617 2618 2619 2620 2621 2623 2624 2626 2627 2629 2630 2631 2632 2633 2634 2635 2635 2635 2636 2636 2637 2637 2638 2639 2639 2640 2641 2642 2644 2645 2646 2647 2649 2650 2651 2653 2654 2655 2656 2658 2659 2660 2661 2662 2662 2663 2664 2665 2665 2666 2667 2668 2669 2670 2670 2672 2673
2632 2629 2627 2624 2622 2620 2619 2617 2616 2615 2614 2613 2612 2612 2611 2611 2612 2612 2612 2612 2612 2613 2614 2614 2614 2615 2615 2616 2616 2617 2618 2619 2620 2621 2623 2624 2626 2627 2629 2630 2632 2633 2633 2634 2635 2635 2636 2637 2637 2638 2638 2639 2640 2641 2642 2643 2645 2646 2647 2648 2649 2650 2651 2653 2654 2655 2656 2657 2658 2659 2660 2661 2662 2662 2663 2664 2665 2666 2666 2667 2668 2669 2670 2671 2672
2628 2625 2623 2621 2619 2617 2615 2614 2613 2611 2610 2610 2609 2609 2609 2609 2609 2610 2610 2610 2611 2611 2612 2613 2613 2614 2614 2615 2615 2616 2617 2618 2619 2620 2622 2623 2625 2627 2629 2630 2631 2632 2633 2634 2635 2635 2636 2637 2638 2638 2639 2640 2641 2642 2643 2644 2646 2647 2648 2649 2650 2651 2652 2653 2654 2655 2656 2657 2658 2659 2660 2660 2661 2662 2663 2664 2665 2665 2666 2667 2668 2668 2669 2670 2671